time, Switch, Flow(0), Analog(2)
yyyy/mm/dd HH:MM:SS.fff, True=FILTERED|False=TOTAL, L/min, V
2023/07/01 04:00:01.742, True, 4.643, 0.130999
2023/07/01 04:00:02.238, True, 4.388, 0.129625
2023/07/01 04:00:02.742, True, 4.304, 0.129168
2023/07/01 04:00:03.246, True, 3.978, 0.131228
2023/07/01 04:00:03.741, True, 4.043, 0.131380
2023/07/01 04:00:04.246, True, 2.321, 0.129778
2023/07/01 04:00:04.750, True, 1.326, 0.130312
2023/07/01 04:00:05.246, True, 1.348, 0.129397
2023/07/01 04:00:05.750, True, 0.995, 0.130312
2023/07/01 04:00:06.254, True, 0.995, 0.129931
2023/07/01 04:00:06.750, True, 1.011, 0.129854
2023/07/01 04:00:07.254, True, 0.995, 0.131762
2023/07/01 04:00:07.758, True, 0.995, 0.131380
2023/07/01 04:00:08.253, True, 1.011, 0.130312
2023/07/01 04:00:08.758, True, 0.995, 0.129397
2023/07/01 04:00:09.262, True, 0.994, 0.129854
2023/07/01 04:00:09.758, True, 1.011, 0.129244
2023/07/01 04:00:10.262, True, 0.995, 0.130159
2023/07/01 04:00:10.758, True, 1.348, 0.130770
2023/07/01 04:00:11.262, True, 0.997, 0.131456
2023/07/01 04:00:11.766, True, 0.993, 0.129549
2023/07/01 04:00:12.262, True, 1.011, 0.130541
2023/07/01 04:00:12.766, True, 0.995, 0.131228
2023/07/01 04:00:13.270, True, 0.995, 0.131304
2023/07/01 04:00:13.766, True, 1.011, 0.129168
2023/07/01 04:00:14.270, True, 0.996, 0.129473
2023/07/01 04:00:14.774, True, 0.994, 0.130999
2023/07/01 04:00:15.270, True, 1.011, 0.130999
2023/07/01 04:00:15.774, True, 0.995, 0.130617
2023/07/01 04:00:16.278, True, 0.995, 0.131685
2023/07/01 04:00:16.774, True, 1.011, 0.130541
2023/07/01 04:00:17.278, True, 0.995, 0.130617
2023/07/01 04:00:17.782, True, 0.995, 0.129549
2023/07/01 04:00:18.278, True, 1.011, 0.132067
2023/07/01 04:00:18.782, True, 0.995, 0.131456
2023/07/01 04:00:19.286, True, 0.995, 0.131228
2023/07/01 04:00:19.782, True, 1.011, 0.130770
2023/07/01 04:00:20.286, True, 0.995, 0.129091
2023/07/01 04:00:20.790, True, 0.995, 0.129397
2023/07/01 04:00:21.286, True, 1.011, 0.131762
2023/07/01 04:00:21.790, True, 1.326, 0.131075
2023/07/01 04:00:22.294, True, 0.995, 0.132906
2023/07/01 04:00:22.790, True, 1.011, 0.130922
2023/07/01 04:00:23.294, True, 0.995, 0.130083
2023/07/01 04:00:23.798, True, 0.995, 0.130388
2023/07/01 04:00:24.294, True, 1.011, 0.128710
2023/07/01 04:00:24.798, True, 0.995, 0.130007
2023/07/01 04:00:25.294, True, 1.348, 0.130236
2023/07/01 04:00:25.798, True, 0.995, 0.130159
2023/07/01 04:00:26.302, True, 0.995, 0.129397
2023/07/01 04:00:26.806, True, 0.995, 0.131151
2023/07/01 04:00:27.302, True, 1.012, 0.128634
2023/07/01 04:00:27.806, True, 0.993, 0.129244
2023/07/01 04:00:28.302, True, 1.011, 0.129168
2023/07/01 04:00:28.806, True, 0.995, 0.130617
2023/07/01 04:00:29.310, True, 0.995, 0.129397
2023/07/01 04:00:29.806, True, 1.348, 0.130236
2023/07/01 04:00:30.310, True, 0.995, 0.129473
2023/07/01 04:00:30.814, True, 0.995, 0.131838
2023/07/01 04:00:31.310, True, 1.011, 0.131533
2023/07/01 04:00:31.814, True, 0.995, 0.129778
2023/07/01 04:00:32.310, True, 1.011, 0.130083
2023/07/01 04:00:32.814, True, 0.995, 0.130541
2023/07/01 04:00:33.318, True, 0.995, 0.130312
2023/07/01 04:00:33.822, True, 0.995, 0.131151
2023/07/01 04:00:34.318, True, 1.011, 0.130159
2023/07/01 04:00:34.822, True, 0.997, 0.131151
2023/07/01 04:00:35.326, True, 1.324, 0.130236
2023/07/01 04:00:35.822, True, 1.011, 0.129931
2023/07/01 04:00:36.326, True, 0.995, 0.128328
2023/07/01 04:00:36.830, True, 0.995, 0.130846
2023/07/01 04:00:37.326, True, 1.011, 0.130617
2023/07/01 04:00:37.830, True, 0.995, 0.130770
2023/07/01 04:00:38.334, True, 0.995, 0.129625
2023/07/01 04:00:38.830, True, 1.011, 0.128710
2023/07/01 04:00:39.334, True, 0.663, 0.130846
2023/07/01 04:00:39.838, True, 0.995, 0.131228
2023/07/01 04:00:40.334, True, 1.011, 0.130083
2023/07/01 04:00:40.838, True, 0.995, 0.130312
2023/07/01 04:00:41.342, True, 0.995, 0.133135
2023/07/01 04:00:41.837, True, 1.011, 0.130617
2023/07/01 04:00:42.342, True, 0.995, 0.134203
2023/07/01 04:00:42.845, True, 0.995, 0.129778
2023/07/01 04:00:43.341, True, 1.011, 0.132296
2023/07/01 04:00:43.846, True, 0.994, 0.131304
2023/07/01 04:00:44.349, True, 1.326, 0.127871
2023/07/01 04:00:44.846, True, 1.011, 0.129854
2023/07/01 04:00:45.350, True, 0.995, 0.130465
2023/07/01 04:00:45.853, True, 0.995, 0.130312
2023/07/01 04:00:46.350, True, 1.011, 0.132601
2023/07/01 04:00:46.854, True, 0.995, 0.129931
2023/07/01 04:00:47.358, True, 0.995, 0.128176
2023/07/01 04:00:47.854, True, 1.011, 0.128405
2023/07/01 04:00:48.358, True, 0.996, 0.129625
2023/07/01 04:00:48.862, True, 0.994, 0.127947
2023/07/01 04:00:49.366, True, 0.995, 0.129244
2023/07/01 04:00:49.862, True, 1.011, 0.131075
2023/07/01 04:00:50.366, True, 0.995, 0.131075
2023/07/01 04:00:50.870, True, 0.995, 0.130999
2023/07/01 04:00:51.366, True, 1.011, 0.131075
2023/07/01 04:00:51.869, True, 0.995, 0.129091
2023/07/01 04:00:52.374, True, 0.994, 0.129778
2023/07/01 04:00:52.870, True, 1.012, 0.129549
2023/07/01 04:00:53.374, True, 0.995, 0.129549
2023/07/01 04:00:53.878, True, 0.994, 0.128786
2023/07/01 04:00:54.374, True, 1.348, 0.129778
2023/07/01 04:00:54.878, True, 0.996, 0.133059
2023/07/01 04:00:55.374, True, 1.012, 0.131456
2023/07/01 04:00:55.878, True, 0.993, 0.131075
2023/07/01 04:00:56.382, True, 0.995, 0.131609
2023/07/01 04:00:56.886, True, 0.995, 0.130617
2023/07/01 04:00:57.382, True, 1.011, 0.131609
2023/07/01 04:00:57.886, True, 0.995, 0.131762
2023/07/01 04:00:58.389, True, 0.995, 0.132906
2023/07/01 04:00:58.886, True, 1.011, 0.130999
2023/07/01 04:00:59.390, True, 0.995, 0.130617
2023/07/01 04:00:59.894, True, 0.995, 0.129702
2023/07/01 04:01:00.390, True, 1.011, 0.133059
2023/07/01 04:01:00.894, True, 0.995, 0.133135
2023/07/01 04:01:01.398, True, 0.995, 0.132982
2023/07/01 04:01:01.894, True, 1.011, 0.131991
2023/07/01 04:01:02.398, True, 0.994, 0.131762
2023/07/01 04:01:02.902, True, 0.995, 0.132219
2023/07/01 04:01:03.398, True, 1.011, 0.132296
2023/07/01 04:01:03.902, True, 0.995, 0.132677
2023/07/01 04:01:04.398, True, 1.011, 0.133211
2023/07/01 04:01:04.902, True, 0.995, 0.133745
2023/07/01 04:01:05.406, True, 0.995, 0.133822
2023/07/01 04:01:05.902, True, 1.011, 0.132906
2023/07/01 04:01:06.406, True, 0.995, 0.134508
2023/07/01 04:01:06.910, True, 0.995, 0.130922
2023/07/01 04:01:07.406, True, 1.010, 0.132448
2023/07/01 04:01:07.910, True, 0.995, 0.132677
2023/07/01 04:01:08.414, True, 0.995, 0.132982
2023/07/01 04:01:08.910, True, 1.011, 0.132906
2023/07/01 04:01:09.414, True, 0.995, 0.133593
2023/07/01 04:01:09.918, True, 0.995, 0.135119
2023/07/01 04:01:10.414, True, 1.012, 0.135348
2023/07/01 04:01:10.918, True, 0.994, 0.134279
2023/07/01 04:01:11.422, True, 0.995, 0.132906
2023/07/01 04:01:11.926, True, 0.995, 0.135424
2023/07/01 04:01:12.422, True, 1.011, 0.135882
2023/07/01 04:01:12.926, True, 0.995, 0.134279
2023/07/01 04:01:13.430, True, 0.995, 0.136568
2023/07/01 04:01:13.926, True, 1.011, 0.135271
2023/07/01 04:01:14.430, True, 0.995, 0.136568
2023/07/01 04:01:14.934, True, 0.995, 0.133822
2023/07/01 04:01:15.430, True, 1.011, 0.134966
2023/07/01 04:01:15.934, True, 0.995, 0.134051
2023/07/01 04:01:16.438, True, 0.995, 0.135729
2023/07/01 04:01:16.934, True, 1.011, 0.138399
2023/07/01 04:01:17.438, True, 0.995, 0.135882
2023/07/01 04:01:17.942, True, 0.995, 0.134890
2023/07/01 04:01:18.438, True, 1.011, 0.136034
2023/07/01 04:01:18.942, True, 0.995, 0.135195
2023/07/01 04:01:19.446, True, 0.995, 0.135500
2023/07/01 04:01:19.950, True, 0.995, 0.136339
2023/07/01 04:01:20.446, True, 1.011, 0.135500
2023/07/01 04:01:20.950, True, 0.995, 0.134508
2023/07/01 04:01:21.454, True, 0.995, 0.137560
2023/07/01 04:01:21.950, True, 1.011, 0.138781
2023/07/01 04:01:22.454, True, 0.996, 0.136492
2023/07/01 04:01:22.950, True, 1.009, 0.136797
2023/07/01 04:01:23.454, True, 0.995, 0.137179
2023/07/01 04:01:23.958, True, 0.995, 0.135805
2023/07/01 04:01:24.454, True, 1.010, 0.136110
2023/07/01 04:01:24.958, True, 0.995, 0.136416
2023/07/01 04:01:25.462, True, 0.994, 0.135500
2023/07/01 04:01:25.958, True, 1.348, 0.136263
2023/07/01 04:01:26.462, True, 0.995, 0.137713
2023/07/01 04:01:26.966, True, 0.995, 0.138018
2023/07/01 04:01:27.462, True, 1.011, 0.136110
2023/07/01 04:01:27.966, True, 0.995, 0.138170
2023/07/01 04:01:28.470, True, 0.997, 0.135348
2023/07/01 04:01:28.966, True, 1.011, 0.138628
2023/07/01 04:01:29.470, True, 0.993, 0.134966
2023/07/01 04:01:29.974, True, 0.995, 0.135882
2023/07/01 04:01:30.470, True, 1.011, 0.136034
2023/07/01 04:01:30.974, True, 0.995, 0.137026
2023/07/01 04:01:31.478, True, 0.995, 0.136873
2023/07/01 04:01:31.974, True, 1.348, 0.137102
2023/07/01 04:01:32.477, True, 0.663, 0.135195
2023/07/01 04:01:32.981, True, 0.995, 0.139315
2023/07/01 04:01:33.478, True, 1.011, 0.135348
2023/07/01 04:01:33.982, True, 0.995, 0.137789
2023/07/01 04:01:34.486, True, 0.995, 0.137789
2023/07/01 04:01:34.982, True, 1.011, 0.138247
2023/07/01 04:01:35.486, True, 0.995, 0.137407
2023/07/01 04:01:35.990, True, 0.995, 0.138628
2023/07/01 04:01:36.486, True, 1.011, 0.137789
2023/07/01 04:01:36.990, True, 0.995, 0.135958
2023/07/01 04:01:37.486, True, 1.011, 0.140078
2023/07/01 04:01:37.990, True, 0.663, 0.138933
2023/07/01 04:01:38.494, True, 0.995, 0.137942
2023/07/01 04:01:38.990, True, 1.348, 0.139086
2023/07/01 04:01:39.494, True, 0.995, 0.136339
2023/07/01 04:01:39.998, True, 0.995, 0.137865
2023/07/01 04:01:40.494, True, 1.011, 0.137865
2023/07/01 04:01:40.998, True, 0.663, 0.134966
2023/07/01 04:01:41.502, True, 0.995, 0.136568
2023/07/01 04:01:41.998, True, 1.011, 0.139162
2023/07/01 04:01:42.501, True, 0.995, 0.134890
2023/07/01 04:01:43.006, True, 0.995, 0.137484
2023/07/01 04:01:43.501, True, 1.011, 0.138857
2023/07/01 04:01:44.006, True, 0.994, 0.136950
2023/07/01 04:01:44.510, True, 0.995, 0.137026
2023/07/01 04:01:45.006, True, 1.011, 0.135805
2023/07/01 04:01:45.510, True, 1.326, 0.136568
2023/07/01 04:01:46.006, True, 1.011, 0.138170
2023/07/01 04:01:46.510, True, 0.995, 0.138094
2023/07/01 04:01:47.014, True, 0.995, 0.136416
2023/07/01 04:01:47.510, True, 1.011, 0.137331
2023/07/01 04:01:48.014, True, 0.995, 0.137789
2023/07/01 04:01:48.518, True, 0.995, 0.136263
2023/07/01 04:01:49.014, True, 1.011, 0.138857
2023/07/01 04:01:49.518, True, 1.327, 0.137942
2023/07/01 04:01:50.022, True, 0.663, 0.140154
2023/07/01 04:01:50.518, True, 1.011, 0.136721
2023/07/01 04:01:51.022, True, 0.995, 0.138476
2023/07/01 04:01:51.525, True, 1.326, 0.136873
2023/07/01 04:01:52.022, True, 1.011, 0.136873
2023/07/01 04:01:52.526, True, 0.995, 0.137560
2023/07/01 04:01:53.030, True, 0.995, 0.139086
2023/07/01 04:01:53.526, True, 0.674, 0.138781
2023/07/01 04:01:54.030, True, 0.995, 0.137331
2023/07/01 04:01:54.526, True, 1.011, 0.137560
2023/07/01 04:01:55.030, True, 0.995, 0.139391
2023/07/01 04:01:55.534, True, 0.995, 0.137255
2023/07/01 04:01:56.030, True, 1.011, 0.137560
2023/07/01 04:01:56.534, True, 1.326, 0.138781
2023/07/01 04:01:57.038, True, 0.995, 0.137560
2023/07/01 04:01:57.534, True, 1.011, 0.137331
2023/07/01 04:01:58.038, True, 0.995, 0.136721
2023/07/01 04:01:58.542, True, 0.995, 0.138628
2023/07/01 04:01:59.038, True, 1.012, 0.138399
2023/07/01 04:01:59.542, True, 0.993, 0.138705
2023/07/01 04:02:00.046, True, 0.995, 0.136416
2023/07/01 04:02:00.542, True, 1.011, 0.139010
2023/07/01 04:02:01.046, True, 0.995, 0.139162
2023/07/01 04:02:01.542, True, 1.011, 0.136950
2023/07/01 04:02:02.046, True, 0.995, 0.135653
2023/07/01 04:02:02.550, True, 0.995, 0.136797
2023/07/01 04:02:03.046, True, 1.011, 0.136110
2023/07/01 04:02:03.550, True, 0.995, 0.137026
2023/07/01 04:02:04.054, True, 0.995, 0.137331
2023/07/01 04:02:04.550, True, 1.011, 0.136416
2023/07/01 04:02:05.054, True, 0.995, 0.138705
2023/07/01 04:02:05.558, True, 0.995, 0.137331
2023/07/01 04:02:06.054, True, 1.011, 0.134966
2023/07/01 04:02:06.558, True, 0.995, 0.139544
2023/07/01 04:02:07.062, True, 0.995, 0.137331
2023/07/01 04:02:07.558, True, 1.011, 0.137331
2023/07/01 04:02:08.062, True, 0.995, 0.138857
2023/07/01 04:02:08.566, True, 0.995, 0.137331
2023/07/01 04:02:09.061, True, 1.011, 0.136950
2023/07/01 04:02:09.566, True, 0.996, 0.137789
2023/07/01 04:02:10.070, True, 0.994, 0.137102
2023/07/01 04:02:10.566, True, 1.010, 0.137484
2023/07/01 04:02:11.070, True, 0.995, 0.136339
2023/07/01 04:02:11.574, True, 0.995, 0.135424
2023/07/01 04:02:12.070, True, 1.011, 0.139010
2023/07/01 04:02:12.574, True, 0.995, 0.138552
2023/07/01 04:02:13.078, True, 0.995, 0.137560
2023/07/01 04:02:13.582, True, 0.995, 0.138628
2023/07/01 04:02:14.078, True, 1.011, 0.138857
2023/07/01 04:02:14.582, True, 0.995, 0.137026
2023/07/01 04:02:15.077, True, 1.011, 0.136721
2023/07/01 04:02:15.581, True, 0.995, 0.139239
2023/07/01 04:02:16.086, True, 0.995, 0.136873
2023/07/01 04:02:16.582, True, 1.011, 0.136721
2023/07/01 04:02:17.086, True, 0.995, 0.137179
2023/07/01 04:02:17.590, True, 0.995, 0.137713
2023/07/01 04:02:18.086, True, 1.011, 0.135424
2023/07/01 04:02:18.590, True, 0.995, 0.137713
2023/07/01 04:02:19.094, True, 0.996, 0.137102
2023/07/01 04:02:19.590, True, 1.009, 0.137255
2023/07/01 04:02:20.093, True, 0.995, 0.138018
2023/07/01 04:02:20.590, True, 1.011, 0.138933
2023/07/01 04:02:21.094, True, 0.995, 0.139010
2023/07/01 04:02:21.598, True, 0.664, 0.137255
2023/07/01 04:02:22.101, True, 0.995, 0.136950
2023/07/01 04:02:22.597, True, 1.010, 0.139544
2023/07/01 04:02:23.102, True, 0.996, 0.137331
2023/07/01 04:02:23.606, True, 0.993, 0.136263
2023/07/01 04:02:24.101, True, 1.011, 0.136721
2023/07/01 04:02:24.606, True, 0.996, 0.136797
2023/07/01 04:02:25.102, True, 1.011, 0.139239
2023/07/01 04:02:25.606, True, 0.993, 0.136492
2023/07/01 04:02:26.110, True, 0.997, 0.138552
2023/07/01 04:02:26.605, True, 1.009, 0.136950
2023/07/01 04:02:27.110, True, 0.996, 0.135500
2023/07/01 04:02:27.614, True, 0.993, 0.137407
2023/07/01 04:02:28.109, True, 1.011, 0.136339
2023/07/01 04:02:28.614, True, 0.995, 0.138781
2023/07/01 04:02:29.118, True, 0.994, 0.137331
2023/07/01 04:02:29.614, True, 1.011, 0.139620
2023/07/01 04:02:30.118, True, 0.996, 0.137636
2023/07/01 04:02:30.622, True, 0.994, 0.136568
2023/07/01 04:02:31.125, True, 1.326, 0.137102
2023/07/01 04:02:31.622, True, 1.011, 0.139162
2023/07/01 04:02:32.126, True, 0.996, 0.134508
2023/07/01 04:02:32.622, True, 1.009, 0.138094
2023/07/01 04:02:33.126, True, 0.995, 0.135729
2023/07/01 04:02:33.630, True, 0.995, 0.136950
2023/07/01 04:02:34.126, True, 1.011, 0.138552
2023/07/01 04:02:34.630, True, 0.995, 0.137179
2023/07/01 04:02:35.134, True, 0.995, 0.138170
2023/07/01 04:02:35.630, True, 1.010, 0.137942
2023/07/01 04:02:36.134, True, 0.995, 0.138628
2023/07/01 04:02:36.637, True, 0.997, 0.136416
2023/07/01 04:02:37.134, True, 1.009, 0.135348
2023/07/01 04:02:37.638, True, 0.995, 0.137789
2023/07/01 04:02:38.142, True, 0.995, 0.137636
2023/07/01 04:02:38.638, True, 1.010, 0.138399
2023/07/01 04:02:39.142, True, 0.995, 0.135882
2023/07/01 04:02:39.646, True, 0.664, 0.139849
2023/07/01 04:02:40.142, True, 1.009, 0.134279
2023/07/01 04:02:40.646, True, 0.995, 0.135348
2023/07/01 04:02:41.142, True, 1.011, 0.137026
2023/07/01 04:02:41.646, True, 0.995, 0.137560
2023/07/01 04:02:42.150, True, 0.995, 0.137560
2023/07/01 04:02:42.646, True, 1.011, 0.134356
2023/07/01 04:02:43.150, True, 0.997, 0.139620
2023/07/01 04:02:43.654, True, 0.993, 0.137942
2023/07/01 04:02:44.150, True, 1.011, 0.137179
2023/07/01 04:02:44.654, True, 0.995, 0.138399
2023/07/01 04:02:45.158, True, 0.995, 0.140688
2023/07/01 04:02:45.662, True, 0.995, 0.140002
2023/07/01 04:02:46.158, True, 1.011, 0.137865
2023/07/01 04:02:46.662, True, 0.995, 0.137713
2023/07/01 04:02:47.166, True, 0.995, 0.135576
2023/07/01 04:02:47.662, True, 1.012, 0.136492
2023/07/01 04:02:48.166, True, 0.993, 0.138628
2023/07/01 04:02:48.670, True, 0.997, 0.136263
2023/07/01 04:02:49.166, True, 1.009, 0.138094
2023/07/01 04:02:49.670, True, 0.995, 0.136416
2023/07/01 04:02:50.174, True, 0.996, 0.138628
2023/07/01 04:02:50.678, True, 0.993, 0.138628
2023/07/01 04:02:51.174, True, 1.011, 0.136873
2023/07/01 04:02:51.678, True, 0.994, 0.135042
2023/07/01 04:02:52.174, True, 0.675, 0.136568
2023/07/01 04:02:52.678, True, 0.995, 0.138247
2023/07/01 04:02:53.182, True, 0.994, 0.136873
2023/07/01 04:02:53.686, True, 0.994, 0.136645
2023/07/01 04:02:54.181, True, 0.674, 0.136950
2023/07/01 04:02:54.686, True, 0.995, 0.137179
2023/07/01 04:02:55.190, True, 0.995, 0.137255
2023/07/01 04:02:55.686, True, 1.011, 0.135958
2023/07/01 04:02:56.190, True, 0.995, 0.138170
2023/07/01 04:02:56.694, True, 0.995, 0.135424
2023/07/01 04:02:57.190, True, 1.011, 0.136873
2023/07/01 04:02:57.693, True, 0.995, 0.136339
2023/07/01 04:02:58.198, True, 0.995, 0.137102
2023/07/01 04:02:58.694, True, 1.011, 0.136339
2023/07/01 04:02:59.198, True, 0.995, 0.135958
2023/07/01 04:02:59.702, True, 0.995, 0.138323
2023/07/01 04:03:00.198, True, 1.011, 0.135348
2023/07/01 04:03:00.702, True, 0.995, 0.135195
2023/07/01 04:03:01.206, True, 0.997, 0.137331
2023/07/01 04:03:01.702, True, 1.009, 0.137865
2023/07/01 04:03:02.206, True, 0.995, 0.136721
2023/07/01 04:03:02.710, True, 0.995, 0.136950
2023/07/01 04:03:03.214, True, 0.995, 0.135882
2023/07/01 04:03:03.710, True, 1.011, 0.136416
2023/07/01 04:03:04.214, True, 1.328, 0.137102
2023/07/01 04:03:04.710, True, 1.009, 0.136721
2023/07/01 04:03:05.214, True, 0.995, 0.138476
2023/07/01 04:03:05.718, True, 0.994, 0.136492
2023/07/01 04:03:06.214, True, 1.011, 0.136339
2023/07/01 04:03:06.718, True, 0.995, 0.136110
2023/07/01 04:03:07.222, True, 0.996, 0.138857
2023/07/01 04:03:07.718, True, 1.010, 0.135958
2023/07/01 04:03:08.222, True, 0.995, 0.135424
2023/07/01 04:03:08.718, True, 0.674, 0.138399
2023/07/01 04:03:09.222, True, 0.995, 0.137255
2023/07/01 04:03:09.726, True, 0.995, 0.135119
2023/07/01 04:03:10.222, True, 1.011, 0.136416
2023/07/01 04:03:10.726, True, 0.995, 0.136263
2023/07/01 04:03:11.230, True, 0.996, 0.136187
2023/07/01 04:03:11.726, True, 1.010, 0.137407
2023/07/01 04:03:12.230, True, 0.995, 0.137789
2023/07/01 04:03:12.734, True, 0.995, 0.136263
2023/07/01 04:03:13.238, True, 0.995, 0.135958
2023/07/01 04:03:13.734, True, 1.012, 0.137331
2023/07/01 04:03:14.238, True, 0.994, 0.136568
2023/07/01 04:03:14.734, True, 1.011, 0.138018
2023/07/01 04:03:15.238, True, 0.995, 0.137179
2023/07/01 04:03:15.742, True, 0.994, 0.135424
2023/07/01 04:03:16.238, True, 1.011, 0.138399
2023/07/01 04:03:16.742, True, 0.995, 0.134813
2023/07/01 04:03:17.246, True, 0.995, 0.136721
2023/07/01 04:03:17.742, True, 1.012, 0.135500
2023/07/01 04:03:18.246, True, 0.994, 0.137560
2023/07/01 04:03:18.750, True, 0.995, 0.135042
2023/07/01 04:03:19.246, True, 0.674, 0.135119
2023/07/01 04:03:19.750, True, 0.995, 0.135729
2023/07/01 04:03:20.254, True, 0.995, 0.135500
2023/07/01 04:03:20.750, True, 1.011, 0.138094
2023/07/01 04:03:21.254, True, 0.995, 0.136645
2023/07/01 04:03:21.758, True, 0.995, 0.135424
2023/07/01 04:03:22.254, True, 1.011, 0.137179
2023/07/01 04:03:22.758, True, 0.995, 0.136950
2023/07/01 04:03:23.262, True, 0.995, 0.136416
2023/07/01 04:03:23.758, True, 1.011, 0.136187
2023/07/01 04:03:24.262, True, 0.995, 0.135958
2023/07/01 04:03:24.766, True, 0.995, 0.139010
2023/07/01 04:03:25.262, True, 1.011, 0.137102
2023/07/01 04:03:25.766, True, 0.995, 0.135882
2023/07/01 04:03:26.270, True, 0.995, 0.137255
2023/07/01 04:03:26.766, True, 1.011, 0.135348
2023/07/01 04:03:27.270, True, 0.995, 0.137026
2023/07/01 04:03:27.774, True, 0.995, 0.135958
2023/07/01 04:03:28.270, True, 1.011, 0.136187
2023/07/01 04:03:28.774, True, 0.995, 0.135424
2023/07/01 04:03:29.270, True, 1.011, 0.134432
2023/07/01 04:03:29.774, True, 0.995, 0.137484
2023/07/01 04:03:30.278, True, 0.995, 0.135271
2023/07/01 04:03:30.774, True, 1.011, 0.137865
2023/07/01 04:03:31.278, True, 0.995, 0.138323
2023/07/01 04:03:31.782, True, 0.995, 0.138628
2023/07/01 04:03:32.286, True, 0.995, 0.134508
2023/07/01 04:03:32.782, True, 1.011, 0.136797
2023/07/01 04:03:33.286, True, 0.995, 0.135042
2023/07/01 04:03:33.790, True, 0.995, 0.136339
2023/07/01 04:03:34.286, True, 1.011, 0.139315
2023/07/01 04:03:34.790, True, 0.995, 0.135576
2023/07/01 04:03:35.294, True, 0.995, 0.136416
2023/07/01 04:03:35.790, True, 1.011, 0.134966
2023/07/01 04:03:36.294, True, 0.995, 0.134432
2023/07/01 04:03:36.798, True, 0.995, 0.136492
2023/07/01 04:03:37.294, True, 1.011, 0.136797
2023/07/01 04:03:37.798, True, 0.995, 0.136950
2023/07/01 04:03:38.302, True, 0.994, 0.137560
2023/07/01 04:03:38.806, True, 0.995, 0.137484
2023/07/01 04:03:39.302, True, 1.011, 0.136339
2023/07/01 04:03:39.806, True, 0.994, 0.135042
2023/07/01 04:03:40.310, True, 0.996, 0.136034
2023/07/01 04:03:40.806, True, 0.674, 0.135882
2023/07/01 04:03:41.310, True, 0.994, 0.136950
2023/07/01 04:03:41.814, True, 1.328, 0.136110
2023/07/01 04:03:42.310, True, 0.674, 0.137560
2023/07/01 04:03:42.814, True, 0.994, 0.135119
2023/07/01 04:03:43.318, True, 0.996, 0.135576
2023/07/01 04:03:43.814, True, 1.011, 0.136568
2023/07/01 04:03:44.318, True, 0.994, 0.138705
2023/07/01 04:03:44.822, True, 0.995, 0.134356
2023/07/01 04:03:45.318, True, 1.011, 0.134585
2023/07/01 04:03:45.822, True, 0.995, 0.138018
2023/07/01 04:03:46.326, True, 0.995, 0.136110
2023/07/01 04:03:46.822, True, 1.011, 0.136110
2023/07/01 04:03:47.326, True, 0.995, 0.136492
2023/07/01 04:03:47.829, True, 0.995, 0.136797
2023/07/01 04:03:48.326, True, 1.011, 0.136568
2023/07/01 04:03:48.830, True, 0.995, 0.136339
2023/07/01 04:03:49.333, True, 0.995, 0.135500
2023/07/01 04:03:49.837, True, 0.995, 0.135042
2023/07/01 04:03:50.334, True, 1.011, 0.136568
2023/07/01 04:03:50.838, True, 0.995, 0.136110
2023/07/01 04:03:51.334, True, 1.011, 0.134508
2023/07/01 04:03:51.838, True, 0.995, 0.136645
2023/07/01 04:03:52.342, True, 0.995, 0.134966
2023/07/01 04:03:52.846, True, 0.995, 0.136187
2023/07/01 04:03:53.342, True, 1.011, 0.134966
2023/07/01 04:03:53.846, True, 0.664, 0.135348
2023/07/01 04:03:54.350, True, 1.326, 0.134966
2023/07/01 04:03:54.846, True, 0.674, 0.135729
2023/07/01 04:03:55.350, True, 0.995, 0.134966
2023/07/01 04:03:55.854, True, 0.995, 0.136873
2023/07/01 04:03:56.350, True, 1.011, 0.134432
2023/07/01 04:03:56.854, True, 0.994, 0.135042
2023/07/01 04:03:57.350, True, 0.675, 0.136492
2023/07/01 04:03:57.854, True, 0.993, 0.135805
2023/07/01 04:03:58.358, True, 0.994, 0.136416
2023/07/01 04:03:58.854, True, 1.011, 0.134813
2023/07/01 04:03:59.358, True, 0.995, 0.135119
2023/07/01 04:03:59.862, True, 0.996, 0.136416
2023/07/01 04:04:00.358, True, 1.009, 0.136492
2023/07/01 04:04:00.862, True, 0.996, 0.136416
2023/07/01 04:04:01.358, True, 1.011, 0.135805
2023/07/01 04:04:01.862, True, 0.995, 0.136721
2023/07/01 04:04:02.366, True, 0.995, 0.137331
2023/07/01 04:04:02.862, True, 1.011, 0.134432
2023/07/01 04:04:03.366, True, 0.663, 0.137331
2023/07/01 04:04:03.870, True, 0.993, 0.135195
2023/07/01 04:04:04.374, True, 0.995, 0.136645
2023/07/01 04:04:04.870, True, 1.013, 0.135729
2023/07/01 04:04:05.374, True, 0.993, 0.134203
2023/07/01 04:04:05.878, True, 0.995, 0.138170
2023/07/01 04:04:06.374, True, 1.011, 0.136492
2023/07/01 04:04:06.878, True, 1.326, 0.137255
2023/07/01 04:04:07.382, True, 0.995, 0.135805
2023/07/01 04:04:07.878, True, 1.010, 0.136187
2023/07/01 04:04:08.382, True, 0.995, 0.136416
2023/07/01 04:04:08.886, True, 0.995, 0.134508
2023/07/01 04:04:09.382, True, 1.011, 0.136645
2023/07/01 04:04:09.886, True, 0.995, 0.137026
2023/07/01 04:04:10.390, True, 0.663, 0.134356
2023/07/01 04:04:10.886, True, 1.011, 0.134127